TimeEST,TemperatureF,Dew PointF,Humidity,Sea Level PressureIn,VisibilityMPH,Wind Direction,Wind SpeedMPH,Gust SpeedMPH,PrecipitationIn,Events,Conditions,WindDirDegrees,DateUTC
12:15 AM,30.2,28.4,93,29.95,2.5,NE,5.8,-,N/A,,Overcast,50,2013-02-24 05:15:00
12:35 AM,30.2,28.4,93,29.94,1.5,ENE,5.8,-,N/A,,Overcast,60,2013-02-24 05:35:00
12:55 AM,30.2,28.4,93,29.92,2.0,NE,6.9,-,N/A,,Overcast,50,2013-02-24 05:55:00
1:15 AM,30.2,28.4,93,29.92,2.5,NE,6.9,-,N/A,,Overcast,50,2013-02-24 06:15:00
1:35 AM,30.2,28.4,93,29.92,3.0,NE,3.5,-,N/A,,Overcast,50,2013-02-24 06:35:00
1:55 AM,30.2,28.4,93,29.91,5.0,NE,5.8,-,N/A,,Overcast,40,2013-02-24 06:55:00
2:15 AM,30.2,28.4,93,29.90,4.0,ENE,5.8,-,N/A,,Overcast,60,2013-02-24 07:15:00
2:35 AM,30.2,28.4,93,29.88,3.0,NE,4.6,-,N/A,,Overcast,40,2013-02-24 07:35:00
2:55 AM,30.2,28.4,93,29.87,3.0,NE,5.8,-,N/A,,Overcast,40,2013-02-24 07:55:00
3:16 AM,30.2,28.4,93,29.86,7.0,NE,5.8,-,N/A,,Overcast,50,2013-02-24 08:16:00
3:35 AM,30.2,28.4,93,29.86,10.0,NE,4.6,-,N/A,,Overcast,50,2013-02-24 08:35:00
3:55 AM,30.2,28.4,93,29.85,9.0,NE,6.9,-,N/A,,Overcast,40,2013-02-24 08:55:00
4:15 AM,30.2,28.4,93,29.85,7.0,NE,4.6,-,N/A,,Overcast,40,2013-02-24 09:15:00
4:35 AM,30.2,28.4,93,29.84,2.5,NE,6.9,-,N/A,,Overcast,50,2013-02-24 09:35:00
4:55 AM,30.2,28.4,93,29.84,3.0,ENE,8.1,-,N/A,,Overcast,60,2013-02-24 09:55:00
5:15 AM,30.2,28.4,93,29.84,2.0,NE,6.9,-,N/A,,Overcast,40,2013-02-24 10:15:00
5:35 AM,30.2,28.4,93,29.85,1.5,NE,5.8,-,N/A,,Overcast,40,2013-02-24 10:35:00
5:55 AM,30.2,28.4,93,29.86,1.8,NE,4.6,-,N/A,,Overcast,50,2013-02-24 10:55:00
6:15 AM,30.2,28.4,93,29.85,1.8,ENE,9.2,-,0.01,,Overcast,60,2013-02-24 11:15:00
6:35 AM,30.2,28.4,93,29.84,0.8,NE,8.1,-,0.01,,Overcast,50,2013-02-24 11:35:00
6:55 AM,30.2,28.4,93,29.84,0.5,NE,6.9,-,0.02,,Overcast,40,2013-02-24 11:55:00
7:15 AM,30.2,28.4,93,29.83,0.5,NE,8.1,-,N/A,,Overcast,50,2013-02-24 12:15:00
7:35 AM,30.2,28.4,93,29.83,0.5,NE,8.1,-,0.01,,Overcast,50,2013-02-24 12:35:00
7:55 AM,30.2,28.4,93,29.84,1.2,NE,8.1,-,0.01,,Overcast,50,2013-02-24 12:55:00
8:15 AM,30.2,28.4,93,29.83,1.0,NE,5.8,-,N/A,,Overcast,40,2013-02-24 13:15:00
8:35 AM,30.2,26.6,86,29.83,0.8,NE,9.2,-,N/A,,Overcast,50,2013-02-24 13:35:00
8:55 AM,30.2,28.4,93,29.82,0.5,NE,9.2,-,N/A,,Overcast,50,2013-02-24 13:55:00
9:15 AM,30.2,26.6,86,29.81,0.2,NE,6.9,-,0.02,,Overcast,50,2013-02-24 14:15:00
9:35 AM,30.2,26.6,86,29.81,0.2,NE,8.1,-,0.03,,Overcast,40,2013-02-24 14:35:00
9:55 AM,30.2,26.6,86,29.80,0.2,NE,8.1,-,0.03,,Overcast,40,2013-02-24 14:55:00
10:15 AM,30.2,26.6,86,29.80,0.2,NE,6.9,-,0.01,,Overcast,40,2013-02-24 15:15:00
10:35 AM,30.2,26.6,86,29.79,0.2,NE,8.1,-,0.02,,Overcast,40,2013-02-24 15:35:00
10:55 AM,30.2,26.6,86,29.79,0.2,NE,6.9,-,0.03,,Overcast,50,2013-02-24 15:55:00
11:15 AM,30.2,26.6,86,29.79,0.2,NE,5.8,-,0.01,,Overcast,50,2013-02-24 16:15:00
11:35 AM,30.2,26.6,86,29.79,0.2,ENE,8.1,-,0.02,,Overcast,60,2013-02-24 16:35:00
11:55 AM,30.2,26.6,86,29.78,0.2,NE,5.8,-,0.04,,Overcast,50,2013-02-24 16:55:00
12:15 PM,30.2,26.6,86,29.78,0.2,NE,6.9,-,0.01,,Overcast,40,2013-02-24 17:15:00
12:35 PM,30.2,26.6,86,29.77,0.2,NE,9.2,-,0.01,,Overcast,50,2013-02-24 17:35:00
12:55 PM,30.2,28.4,93,29.76,0.5,ENE,8.1,-,0.01,,Overcast,60,2013-02-24 17:55:00
1:15 PM,30.2,28.4,93,29.76,0.5,NE,9.2,-,N/A,,Overcast,50,2013-02-24 18:15:00
1:35 PM,30.2,28.4,93,29.76,0.5,ENE,9.2,-,N/A,,Overcast,60,2013-02-24 18:35:00
1:55 PM,30.2,28.4,93,29.75,0.5,ENE,6.9,-,N/A,,Overcast,60,2013-02-24 18:55:00
2:15 PM,30.2,28.4,93,29.75,0.5,ENE,8.1,-,0.01,,Overcast,60,2013-02-24 19:15:00
2:35 PM,30.2,28.4,93,29.75,1.0,NE,5.8,-,0.01,,Overcast,50,2013-02-24 19:35:00
2:55 PM,30.2,28.4,93,29.74,2.5,NE,6.9,-,0.01,,Overcast,50,2013-02-24 19:55:00
3:15 PM,30.2,28.4,93,29.75,8.0,NE,5.8,-,N/A,,Overcast,50,2013-02-24 20:15:00
3:35 PM,32.0,28.4,87,29.75,5.0,NNE,3.5,-,N/A,,Overcast,20,2013-02-24 20:35:00
3:55 PM,32.0,28.4,87,29.75,3.0,ENE,3.5,-,N/A,,Overcast,60,2013-02-24 20:55:00
4:15 PM,32.0,28.4,87,29.75,3.0,ENE,6.9,-,N/A,,Overcast,60,2013-02-24 21:15:00
4:35 PM,30.2,28.4,93,29.76,5.0,East,8.1,-,N/A,,Overcast,80,2013-02-24 21:35:00
4:55 PM,30.2,26.6,86,29.76,2.0,East,8.1,-,N/A,,Overcast,80,2013-02-24 21:55:00
5:15 PM,30.2,26.6,86,29.77,1.5,ENE,6.9,-,N/A,,Overcast,70,2013-02-24 22:15:00
5:35 PM,30.2,26.6,86,29.77,1.5,ENE,9.2,-,N/A,,Overcast,70,2013-02-24 22:35:00
5:55 PM,30.2,28.4,93,29.78,1.8,ENE,6.9,-,N/A,,Overcast,70,2013-02-24 22:55:00
6:15 PM,30.2,26.6,86,29.79,2.5,ENE,8.1,-,N/A,,Overcast,70,2013-02-24 23:15:00
6:35 PM,30.2,26.6,86,29.80,1.5,ENE,6.9,-,N/A,,Overcast,70,2013-02-24 23:35:00
6:55 PM,30.2,26.6,86,29.81,1.8,NE,6.9,-,N/A,,Overcast,50,2013-02-24 23:55:00
7:15 PM,30.2,26.6,86,29.81,1.2,East,6.9,-,N/A,,Overcast,80,2013-02-25 00:15:00
7:35 PM,28.4,26.6,93,29.82,1.8,East,5.8,-,N/A,,Overcast,80,2013-02-25 00:35:00
7:55 PM,28.4,26.6,93,29.83,2.5,ENE,4.6,-,N/A,,Overcast,70,2013-02-25 00:55:00
8:15 PM,28.4,26.6,93,29.83,1.8,ENE,5.8,-,N/A,,Overcast,70,2013-02-25 01:15:00
8:35 PM,28.4,26.6,93,29.84,1.5,ENE,3.5,-,N/A,,Overcast,60,2013-02-25 01:35:00
8:55 PM,28.4,26.6,93,29.85,1.2,Calm,Calm,-,N/A,,Overcast,0,2013-02-25 01:55:00
9:15 PM,28.4,26.6,93,29.85,1.2,NE,3.5,-,N/A,,Overcast,50,2013-02-25 02:15:00
9:35 PM,28.4,26.6,93,29.85,1.5,Calm,Calm,-,0.01,,Overcast,0,2013-02-25 02:35:00
9:55 PM,28.4,26.6,93,29.86,1.5,Calm,Calm,-,0.01,,Overcast,0,2013-02-25 02:55:00
10:15 PM,28.4,26.6,93,29.86,1.5,Calm,Calm,-,N/A,,Overcast,0,2013-02-25 03:15:00
10:35 PM,28.4,26.6,93,29.86,1.5,Calm,Calm,-,0.01,,Overcast,0,2013-02-25 03:35:00
10:55 PM,28.4,26.6,93,29.86,2.0,Calm,Calm,-,0.01,,Overcast,0,2013-02-25 03:55:00
11:15 PM,28.4,26.6,93,29.87,2.0,Calm,Calm,-,N/A,,Overcast,0,2013-02-25 04:15:00
11:35 PM,28.4,26.6,93,29.87,2.5,Calm,Calm,-,N/A,,Overcast,0,2013-02-25 04:35:00
11:55 PM,28.4,26.6,93,29.88,2.5,Calm,Calm,-,N/A,,Overcast,0,2013-02-25 04:55:00